GAOFEN-13 02

Last updated on Tue Sep 16 2025 00:02:51 GMT+0000 (Coordinated Universal Time)

1 55912U 23036A 25258.38447588 -.00000234 00000+0 00000+0 0 9993 2 55912 1.1854 328.9270 0002527 346.5558 325.7286 1.00274162 9337
UTC large
Height (km)
Speed (km/s)
/
Latitude / Longitude
Inclination (degrees)
Orbital Period (minutes)
Azimuth
Elevation
Range (km)
Doppler Factor

Next 0 passes for location: London (51.5072 / 0.1276)

Sorry there are no passes over London.